TimeCDT,TemperatureF,Dew PointF,Humidity,Sea Level PressureIn,VisibilityMPH,Wind Direction,Wind SpeedMPH,Gust SpeedMPH,PrecipitationIn,Events,Conditions,WindDirDegrees,DateUTC
12:15 AM,62.6,59.0,88,30.02,10.0,SE,4.6,-,N/A,,Clear,140,2013-06-17 05:15:00
12:35 AM,64.4,59.0,83,30.03,10.0,Calm,Calm,-,N/A,,Clear,0,2013-06-17 05:35:00
12:55 AM,62.6,59.0,88,30.02,10.0,South,3.5,-,N/A,,Clear,180,2013-06-17 05:55:00
1:15 AM,64.4,60.8,88,30.01,10.0,SW,3.5,-,N/A,,Clear,230,2013-06-17 06:15:00
1:35 AM,62.6,60.8,94,30.00,10.0,WNW,4.6,-,N/A,,Clear,300,2013-06-17 06:35:00
1:55 AM,62.6,59.0,88,30.00,10.0,WNW,6.9,-,N/A,,Clear,290,2013-06-17 06:55:00
2:15 AM,62.6,59.0,88,30.01,10.0,NW,5.8,-,N/A,,Clear,310,2013-06-17 07:15:00
2:35 AM,62.6,59.0,88,30.01,10.0,NW,3.5,-,N/A,,Clear,320,2013-06-17 07:35:00
2:55 AM,62.6,59.0,88,30.00,10.0,NW,5.8,-,N/A,,Clear,310,2013-06-17 07:55:00
3:15 AM,62.6,59.0,88,30.00,10.0,NNW,6.9,-,N/A,,Clear,330,2013-06-17 08:15:00
3:35 AM,60.8,59.0,94,30.00,10.0,NNW,6.9,-,N/A,,Clear,330,2013-06-17 08:35:00
3:55 AM,60.8,57.2,88,29.99,10.0,NNW,4.6,-,N/A,,Clear,340,2013-06-17 08:55:00
4:15 AM,60.8,57.2,88,29.98,10.0,NW,4.6,-,N/A,,Clear,320,2013-06-17 09:15:00
4:35 AM,60.8,57.2,88,30.00,10.0,NE,5.8,-,N/A,,Clear,50,2013-06-17 09:35:00
4:55 AM,59.0,55.4,88,30.02,6.0,NE,6.9,-,N/A,,Clear,50,2013-06-17 09:55:00
5:15 AM,57.2,55.4,94,30.05,5.0,NE,5.8,-,N/A,,Clear,50,2013-06-17 10:15:00
5:35 AM,57.2,55.4,94,30.06,4.0,East,4.6,-,N/A,,Clear,80,2013-06-17 10:35:00
5:55 AM,57.2,55.4,94,30.08,3.0,ENE,4.6,-,N/A,,Clear,70,2013-06-17 10:55:00
6:15 AM,57.2,55.4,94,30.09,5.0,North,4.6,-,N/A,,Clear,350,2013-06-17 11:15:00
6:35 AM,57.2,55.4,94,30.10,6.0,NNW,4.6,-,N/A,,Clear,330,2013-06-17 11:35:00
6:55 AM,57.2,55.4,94,30.10,7.0,North,5.8,-,N/A,,Clear,10,2013-06-17 11:55:00
7:15 AM,60.8,57.2,88,30.10,10.0,NNW,4.6,-,N/A,,Clear,340,2013-06-17 12:15:00
7:35 AM,60.8,57.2,88,30.10,10.0,North,5.8,-,N/A,,Clear,10,2013-06-17 12:35:00
7:55 AM,62.6,57.2,82,30.10,10.0,NNE,6.9,-,N/A,,Clear,30,2013-06-17 12:55:00
8:15 AM,64.4,57.2,77,30.11,10.0,NE,5.8,-,N/A,,Clear,40,2013-06-17 13:15:00
8:35 AM,64.4,59.0,83,30.11,10.0,NNE,9.2,-,N/A,,Clear,20,2013-06-17 13:35:00
8:55 AM,66.2,59.0,78,30.11,10.0,NE,8.1,-,N/A,,Clear,50,2013-06-17 13:55:00
9:15 AM,68.0,60.8,78,30.11,10.0,NNE,6.9,-,N/A,,Clear,20,2013-06-17 14:15:00
9:35 AM,68.0,60.8,78,30.12,10.0,North,6.9,-,N/A,,Partly Cloudy,10,2013-06-17 14:35:00
9:55 AM,69.8,60.8,73,30.12,10.0,NNE,6.9,-,N/A,,Partly Cloudy,30,2013-06-17 14:55:00
10:15 AM,69.8,60.8,73,30.13,10.0,North,8.1,-,N/A,,Clear,360,2013-06-17 15:15:00
10:35 AM,71.6,60.8,69,30.12,10.0,North,4.6,-,N/A,,Clear,360,2013-06-17 15:35:00
10:55 AM,71.6,60.8,69,30.11,10.0,Calm,Calm,-,N/A,,Clear,0,2013-06-17 15:55:00
11:15 AM,73.4,60.8,65,30.11,10.0,ENE,3.5,-,N/A,,Clear,60,2013-06-17 16:15:00
11:35 AM,73.4,60.8,65,30.11,10.0,Calm,Calm,-,N/A,,Clear,0,2013-06-17 16:35:00
11:55 AM,75.2,60.8,61,30.11,10.0,ENE,3.5,-,N/A,,Clear,60,2013-06-17 16:55:00
12:15 PM,75.2,60.8,61,30.12,10.0,North,3.5,-,N/A,,Clear,360,2013-06-17 17:15:00
12:35 PM,77.0,62.6,61,30.11,10.0,North,3.5,-,N/A,,Clear,350,2013-06-17 17:35:00
12:55 PM,77.0,62.6,61,30.10,10.0,Calm,Calm,-,N/A,,Clear,0,2013-06-17 17:55:00
1:15 PM,78.8,60.8,54,30.09,10.0,SSE,5.8,-,N/A,,Clear,160,2013-06-17 18:15:00
1:35 PM,78.8,60.8,54,30.10,10.0,SE,3.5,-,N/A,,Clear,130,2013-06-17 18:35:00
1:55 PM,80.6,60.8,51,30.10,10.0,ENE,4.6,-,N/A,,Clear,60,2013-06-17 18:55:00
2:15 PM,80.6,60.8,51,30.09,10.0,WNW,4.6,-,N/A,,Partly Cloudy,300,2013-06-17 19:15:00
2:35 PM,80.6,60.8,51,30.09,10.0,Calm,Calm,-,N/A,,Partly Cloudy,0,2013-06-17 19:35:00
2:55 PM,82.4,62.6,51,30.08,10.0,NNE,5.8,-,N/A,,Scattered Clouds,20,2013-06-17 19:55:00
3:15 PM,80.6,60.8,51,30.08,10.0,NE,5.8,-,N/A,,Scattered Clouds,40,2013-06-17 20:15:00
3:35 PM,80.6,60.8,51,30.07,10.0,NNW,3.5,-,N/A,,Clear,330,2013-06-17 20:35:00
3:55 PM,80.6,60.8,51,30.07,10.0,WNW,6.9,-,N/A,,Clear,300,2013-06-17 20:55:00
4:15 PM,80.6,57.2,45,30.07,10.0,NW,3.5,-,N/A,,Partly Cloudy,310,2013-06-17 21:15:00
4:35 PM,82.4,57.2,42,30.06,10.0,WNW,6.9,-,N/A,,Scattered Clouds,300,2013-06-17 21:35:00
4:55 PM,82.4,59.0,45,30.06,10.0,Calm,Calm,-,N/A,,Partly Cloudy,0,2013-06-17 21:55:00
5:15 PM,82.4,57.2,42,30.05,10.0,NW,5.8,-,N/A,,Clear,310,2013-06-17 22:15:00
5:35 PM,82.4,57.2,42,30.04,10.0,North,4.6,-,N/A,,Clear,10,2013-06-17 22:35:00
5:55 PM,82.4,57.2,42,30.03,10.0,Calm,Calm,-,N/A,,Clear,0,2013-06-17 22:55:00
6:15 PM,82.4,57.2,42,30.03,10.0,SSE,4.6,-,N/A,,Clear,160,2013-06-17 23:15:00
6:35 PM,82.4,57.2,42,30.02,10.0,Calm,Calm,-,N/A,,Clear,0,2013-06-17 23:35:00
6:55 PM,82.4,57.2,42,30.03,10.0,SE,3.5,-,N/A,,Clear,130,2013-06-17 23:55:00
7:15 PM,82.4,55.4,39,30.03,10.0,Calm,Calm,-,N/A,,Clear,0,2013-06-18 00:15:00
7:35 PM,80.6,57.2,45,30.03,10.0,SE,5.8,-,N/A,,Clear,130,2013-06-18 00:35:00
7:55 PM,80.6,59.0,48,30.02,10.0,NE,6.9,-,N/A,,Clear,50,2013-06-18 00:55:00
8:15 PM,78.8,59.0,51,30.02,10.0,ENE,5.8,-,N/A,,Clear,60,2013-06-18 01:15:00
8:35 PM,77.0,59.0,54,30.03,10.0,ENE,4.6,-,N/A,,Clear,70,2013-06-18 01:35:00
8:55 PM,77.0,59.0,54,30.04,10.0,Calm,Calm,-,N/A,,Clear,0,2013-06-18 01:55:00
9:15 PM,77.0,57.2,50,30.04,10.0,Calm,Calm,-,N/A,,Clear,0,2013-06-18 02:15:00
9:35 PM,75.2,59.0,57,30.04,10.0,Calm,Calm,-,N/A,,Clear,0,2013-06-18 02:35:00
9:55 PM,71.6,60.8,69,30.06,10.0,North,4.6,-,N/A,,Clear,350,2013-06-18 02:55:00
10:15 PM,73.4,60.8,65,30.07,10.0,North,-9999.0,-,N/A,,Clear,0,2013-06-18 03:15:00
10:35 PM,71.6,62.6,73,30.07,10.0,North,3.5,-,N/A,,Clear,360,2013-06-18 03:35:00
10:55 PM,73.4,60.8,65,30.08,10.0,North,4.6,-,N/A,,Clear,360,2013-06-18 03:55:00
11:15 PM,69.8,59.0,68,30.07,10.0,NE,4.6,-,N/A,,Clear,40,2013-06-18 04:15:00
11:35 PM,68.0,59.0,73,30.07,10.0,NE,5.8,-,N/A,,Clear,40,2013-06-18 04:35:00
11:55 PM,66.2,59.0,78,30.07,10.0,NE,5.8,-,N/A,,Clear,40,2013-06-18 04:55:00